Time,TemperatureF,DewpointF,PressureIn,WindDirection,WindDirectionDegrees,WindSpeedMPH,WindSpeedGustMPH,Humidity,HourlyPrecipIn,Conditions,Clouds,dailyrainin,SoftwareType,DateUTC
2013-02-24 00:00:00,30.0,28.5,18.39,East,97,5.0,5.0,94,0.00,,,0.01,Wunderground v.1.15,2013-02-24 05:00:00,
2013-02-24 00:05:00,30.0,28.5,18.39,ESE,109,5.0,10.0,94,0.00,,,0.01,Wunderground v.1.15,2013-02-24 05:05:00,
2013-02-24 00:10:00,30.0,28.5,18.39,ESE,119,4.0,4.0,94,0.00,,,0.01,Wunderground v.1.15,2013-02-24 05:10:00,
2013-02-24 00:20:00,29.9,28.4,18.39,SE,127,4.0,4.0,94,0.00,,,0.01,Wunderground v.1.15,2013-02-24 05:20:00,
2013-02-24 00:25:00,29.9,28.4,18.39,SE,124,4.0,10.0,94,0.00,,,0.01,Wunderground v.1.15,2013-02-24 05:25:00,
2013-02-24 00:30:00,29.9,28.4,18.39,SE,144,3.0,10.0,94,0.00,,,0.01,Wunderground v.1.15,2013-02-24 05:30:00,
2013-02-24 00:35:00,29.9,28.4,18.39,ESE,115,3.0,10.0,94,0.00,,,0.01,Wunderground v.1.15,2013-02-24 05:35:00,
2013-02-24 00:40:00,29.9,28.4,18.39,ESE,115,3.0,10.0,94,0.00,,,0.01,Wunderground v.1.15,2013-02-24 05:40:00,
2013-02-24 00:45:00,29.8,28.3,18.39,SSE,149,3.0,10.0,94,0.00,,,0.01,Wunderground v.1.15,2013-02-24 05:45:00,
2013-02-24 00:50:00,29.8,28.3,18.39,SSE,149,2.0,2.0,94,0.00,,,0.01,Wunderground v.1.15,2013-02-24 05:50:00,
2013-02-24 00:55:00,29.9,28.4,18.39,SSE,149,1.0,3.0,94,0.00,,,0.01,Wunderground v.1.15,2013-02-24 05:55:00,
2013-02-24 01:01:00,29.8,28.3,18.39,SE,130,2.0,2.0,94,0.00,,,0.01,Wunderground v.1.15,2013-02-24 06:01:00,
2013-02-24 01:10:00,29.8,28.3,18.39,SE,139,1.0,1.0,94,0.00,,,0.01,Wunderground v.1.15,2013-02-24 06:10:00,
2013-02-24 01:15:00,29.8,28.3,18.39,SE,128,1.0,7.0,94,0.00,,,0.01,Wunderground v.1.15,2013-02-24 06:15:00,
2013-02-24 01:25:00,29.8,28.0,18.39,SE,128,0.0,7.0,93,0.00,,,0.01,Wunderground v.1.15,2013-02-24 06:25:00,
2013-02-24 01:30:00,29.8,28.0,18.39,SE,128,0.0,7.0,93,0.00,,,0.01,Wunderground v.1.15,2013-02-24 06:30:00,
2013-02-24 01:35:00,29.8,28.0,18.39,SE,128,1.0,7.0,93,0.00,,,0.01,Wunderground v.1.15,2013-02-24 06:35:00,
2013-02-24 01:40:00,29.8,28.0,18.39,SE,129,1.0,1.0,93,0.00,,,0.01,Wunderground v.1.15,2013-02-24 06:40:00,
2013-02-24 01:45:00,29.8,28.0,18.39,SE,131,2.0,3.0,93,0.00,,,0.01,Wunderground v.1.15,2013-02-24 06:45:00,
2013-02-24 01:55:00,29.7,27.9,18.39,SE,130,2.0,3.0,93,0.00,,,0.01,Wunderground v.1.15,2013-02-24 06:55:00,
2013-02-24 02:00:00,29.8,27.8,18.39,SE,133,2.0,5.0,92,0.00,,,0.01,Wunderground v.1.15,2013-02-24 07:00:00,
2013-02-24 02:10:00,29.7,27.7,18.39,SE,128,2.0,2.0,92,0.00,,,0.01,Wunderground v.1.15,2013-02-24 07:10:00,
2013-02-24 02:15:00,29.8,27.8,18.39,SE,126,1.0,5.0,92,0.00,,,0.01,Wunderground v.1.15,2013-02-24 07:15:00,
2013-02-24 02:20:00,29.7,27.7,18.39,SE,126,1.0,1.0,92,0.00,,,0.01,Wunderground v.1.15,2013-02-24 07:20:00,
2013-02-24 02:25:00,29.7,27.7,18.39,SE,126,1.0,5.0,92,0.00,,,0.01,Wunderground v.1.15,2013-02-24 07:25:00,
2013-02-24 02:35:00,29.7,27.4,18.39,SE,126,0.0,5.0,91,0.00,,,0.01,Wunderground v.1.15,2013-02-24 07:35:00,
2013-02-24 02:40:00,29.7,27.4,18.39,SE,126,0.0,5.0,91,0.00,,,0.01,Wunderground v.1.15,2013-02-24 07:40:00,
2013-02-24 02:45:00,29.8,27.5,18.39,SE,126,0.0,5.0,91,0.00,,,0.01,Wunderground v.1.15,2013-02-24 07:45:00,
2013-02-24 02:50:00,29.8,27.5,18.39,SE,126,0.0,5.0,91,0.00,,,0.01,Wunderground v.1.15,2013-02-24 07:50:00,
2013-02-24 02:55:00,29.8,27.2,18.39,SE,126,0.0,5.0,90,0.00,,,0.01,Wunderground v.1.15,2013-02-24 07:55:00,
2013-02-24 03:01:00,29.8,27.2,18.39,SE,126,1.0,3.0,90,0.00,,,0.01,Wunderground v.1.15,2013-02-24 08:01:00,
2013-02-24 03:10:00,29.9,27.3,18.39,SE,126,0.0,3.0,90,0.00,,,0.01,Wunderground v.1.15,2013-02-24 08:10:00,
2013-02-24 03:20:00,29.7,26.9,18.39,SE,126,0.0,3.0,89,0.00,,,0.01,Wunderground v.1.15,2013-02-24 08:20:00,
2013-02-24 03:25:00,29.7,26.9,18.39,SE,126,0.0,3.0,89,0.00,,,0.01,Wunderground v.1.15,2013-02-24 08:25:00,
2013-02-24 03:30:00,29.7,26.9,18.39,SE,126,0.0,3.0,89,0.00,,,0.01,Wunderground v.1.15,2013-02-24 08:30:00,
2013-02-24 03:40:00,29.6,26.8,18.39,SE,126,0.0,3.0,89,0.00,,,0.01,Wunderground v.1.15,2013-02-24 08:40:00,
2013-02-24 03:45:00,29.6,26.8,18.39,SE,126,0.0,3.0,89,0.00,,,0.01,Wunderground v.1.15,2013-02-24 08:45:00,
2013-02-24 03:50:00,29.6,26.8,18.39,SE,126,0.0,3.0,89,0.00,,,0.01,Wunderground v.1.15,2013-02-24 08:50:00,
2013-02-24 03:55:00,29.6,26.8,18.39,SE,126,0.0,3.0,89,0.00,,,0.01,Wunderground v.1.15,2013-02-24 08:55:00,
2013-02-24 04:01:00,29.6,26.8,18.39,SE,126,0.0,0.0,89,0.00,,,0.01,Wunderground v.1.15,2013-02-24 09:01:00,
2013-02-24 04:10:00,29.4,26.6,18.39,SE,126,0.0,0.0,89,0.00,,,0.01,Wunderground v.1.15,2013-02-24 09:10:00,
2013-02-24 04:15:00,29.4,26.6,18.39,SE,126,0.0,0.0,89,0.00,,,0.01,Wunderground v.1.15,2013-02-24 09:15:00,
2013-02-24 04:20:00,29.4,26.3,18.39,SE,126,0.0,2.0,88,0.00,,,0.01,Wunderground v.1.15,2013-02-24 09:20:00,
2013-02-24 04:25:00,29.4,26.3,18.39,SE,126,0.0,2.0,88,0.00,,,0.01,Wunderground v.1.15,2013-02-24 09:25:00,
2013-02-24 04:30:00,29.4,26.3,18.39,SE,126,0.0,0.0,88,0.00,,,0.01,Wunderground v.1.15,2013-02-24 09:30:00,
2013-02-24 04:35:00,29.4,26.3,18.39,SE,127,0.0,0.0,88,0.00,,,0.01,Wunderground v.1.15,2013-02-24 09:35:00,
2013-02-24 04:45:00,29.4,26.0,18.39,SE,127,0.0,0.0,87,0.00,,,0.01,Wunderground v.1.15,2013-02-24 09:45:00,
2013-02-24 04:50:00,29.5,26.4,18.39,SE,127,0.0,0.0,88,0.00,,,0.01,Wunderground v.1.15,2013-02-24 09:50:00,
2013-02-24 04:55:00,29.5,26.1,18.39,SE,127,0.0,0.0,87,0.00,,,0.01,Wunderground v.1.15,2013-02-24 09:55:00,
2013-02-24 05:00:00,29.5,26.1,18.39,SE,127,0.0,3.0,87,0.00,,,0.01,Wunderground v.1.15,2013-02-24 10:00:00,
2013-02-24 05:10:00,29.5,26.1,18.39,SE,127,0.0,3.0,87,0.00,,,0.01,Wunderground v.1.15,2013-02-24 10:10:00,
2013-02-24 05:15:00,29.5,26.1,18.39,SE,127,0.0,3.0,87,0.00,,,0.01,Wunderground v.1.15,2013-02-24 10:15:00,
2013-02-24 05:25:00,29.5,26.1,18.39,SE,127,0.0,3.0,87,0.00,,,0.01,Wunderground v.1.15,2013-02-24 10:25:00,
2013-02-24 05:30:00,29.5,26.1,18.39,SE,127,0.0,3.0,87,0.00,,,0.01,Wunderground v.1.15,2013-02-24 10:30:00,
2013-02-24 05:35:00,29.5,26.1,18.39,SE,127,0.0,3.0,87,0.00,,,0.01,Wunderground v.1.15,2013-02-24 10:35:00,
2013-02-24 05:40:00,29.5,26.1,18.39,SE,127,0.0,3.0,87,0.00,,,0.01,Wunderground v.1.15,2013-02-24 10:40:00,
2013-02-24 05:45:00,29.5,26.1,18.39,SE,127,0.0,3.0,87,0.00,,,0.01,Wunderground v.1.15,2013-02-24 10:45:00,
2013-02-24 05:50:00,29.5,26.4,18.39,SE,127,0.0,3.0,88,0.00,,,0.01,Wunderground v.1.15,2013-02-24 10:50:00,
2013-02-24 05:55:00,29.4,26.0,18.39,SE,127,0.0,3.0,87,0.00,,,0.01,Wunderground v.1.15,2013-02-24 10:55:00,
2013-02-24 06:01:00,29.4,26.0,18.39,SE,127,0.0,1.0,87,0.00,,,0.01,Wunderground v.1.15,2013-02-24 11:01:00,
2013-02-24 06:10:00,29.4,25.7,18.39,SE,127,0.0,1.0,86,0.00,,,0.01,Wunderground v.1.15,2013-02-24 11:10:00,
2013-02-24 06:15:00,29.5,26.1,18.39,SE,127,0.0,1.0,87,0.00,,,0.01,Wunderground v.1.15,2013-02-24 11:15:00,
2013-02-24 06:20:00,29.5,25.8,18.39,SE,127,0.0,1.0,86,0.00,,,0.01,Wunderground v.1.15,2013-02-24 11:20:00,
2013-02-24 06:25:00,29.5,25.8,18.39,SE,127,0.0,1.0,86,0.00,,,0.01,Wunderground v.1.15,2013-02-24 11:25:00,
2013-02-24 06:30:00,29.5,25.5,18.39,SE,127,1.0,1.0,85,0.00,,,0.01,Wunderground v.1.15,2013-02-24 11:30:00,
2013-02-24 06:35:00,29.4,25.4,18.39,SE,127,0.0,1.0,85,0.00,,,0.01,Wunderground v.1.15,2013-02-24 11:35:00,
2013-02-24 06:40:00,29.4,25.4,18.39,SE,127,0.0,1.0,85,0.00,,,0.01,Wunderground v.1.15,2013-02-24 11:40:00,
2013-02-24 06:50:00,29.3,25.4,18.39,SE,127,0.0,1.0,85,0.00,,,0.01,Wunderground v.1.15,2013-02-24 11:50:00,
2013-02-24 06:55:00,29.3,25.4,18.39,SE,127,0.0,1.0,85,0.00,,,0.01,Wunderground v.1.15,2013-02-24 11:55:00,
2013-02-24 07:01:00,29.3,25.4,18.39,SE,127,0.0,4.0,85,0.00,,,0.01,Wunderground v.1.15,2013-02-24 12:01:00,
2013-02-24 07:10:00,29.2,25.3,18.39,SE,127,0.0,4.0,85,0.00,,,0.01,Wunderground v.1.15,2013-02-24 12:10:00,
2013-02-24 07:15:00,29.2,25.0,18.39,SE,127,0.0,4.0,84,0.00,,,0.01,Wunderground v.1.15,2013-02-24 12:15:00,
2013-02-24 07:25:00,29.3,25.1,18.39,SE,127,0.0,4.0,84,0.00,,,0.01,Wunderground v.1.15,2013-02-24 12:25:00,
2013-02-24 07:30:00,29.4,25.2,18.39,SE,127,0.0,4.0,84,0.00,,,0.01,Wunderground v.1.15,2013-02-24 12:30:00,
2013-02-24 07:35:00,29.4,25.2,18.39,SE,126,0.0,4.0,84,0.00,,,0.01,Wunderground v.1.15,2013-02-24 12:35:00,
2013-02-24 07:40:00,29.5,25.0,18.39,SE,128,1.0,1.0,83,0.00,,,0.01,Wunderground v.1.15,2013-02-24 12:40:00,
2013-02-24 07:45:00,29.5,25.0,18.39,SE,128,1.0,4.0,83,0.00,,,0.01,Wunderground v.1.15,2013-02-24 12:45:00,
2013-02-24 07:55:00,29.5,25.0,18.39,SE,126,1.0,2.0,83,0.00,,,0.01,Wunderground v.1.15,2013-02-24 12:55:00,
2013-02-24 08:01:00,29.5,25.0,18.39,SE,126,1.0,1.0,83,0.00,,,0.01,Wunderground v.1.15,2013-02-24 13:01:00,
2013-02-24 08:10:00,29.4,24.9,18.39,SE,126,3.0,5.0,83,0.00,,,0.01,Wunderground v.1.15,2013-02-24 13:10:00,
2013-02-24 08:15:00,29.5,25.0,18.39,SE,130,3.0,5.0,83,0.00,,,0.01,Wunderground v.1.15,2013-02-24 13:15:00,
2013-02-24 08:20:00,29.5,25.0,18.39,East,97,3.0,3.0,83,0.00,,,0.01,Wunderground v.1.15,2013-02-24 13:20:00,
2013-02-24 08:30:00,29.4,24.9,18.39,ESE,115,3.0,5.0,83,0.00,,,0.01,Wunderground v.1.15,2013-02-24 13:30:00,
2013-02-24 08:35:00,29.4,25.2,18.39,ESE,122,3.0,5.0,84,0.00,,,0.01,Wunderground v.1.15,2013-02-24 13:35:00,
2013-02-24 08:40:00,29.5,25.3,18.39,SE,124,2.0,2.0,84,0.00,,,0.01,Wunderground v.1.15,2013-02-24 13:40:00,
2013-02-24 08:45:00,29.6,25.4,18.39,ESE,122,1.0,5.0,84,0.00,,,0.01,Wunderground v.1.15,2013-02-24 13:45:00,
2013-02-24 08:55:00,29.5,25.3,18.39,East,94,2.0,5.0,84,0.00,,,0.01,Wunderground v.1.15,2013-02-24 13:55:00,
2013-02-24 09:00:00,29.3,25.4,18.39,East,96,3.0,3.0,85,0.00,,,0.01,Wunderground v.1.15,2013-02-24 14:00:00,
2013-02-24 09:10:00,28.9,25.0,18.39,East,98,4.0,4.0,85,0.00,,,0.01,Wunderground v.1.15,2013-02-24 14:10:00,
2013-02-24 09:15:00,28.9,25.2,18.39,ESE,115,3.0,9.0,86,0.00,,,0.01,Wunderground v.1.15,2013-02-24 14:15:00,
2013-02-24 09:20:00,28.8,25.1,18.39,SE,126,2.0,2.0,86,0.00,,,0.01,Wunderground v.1.15,2013-02-24 14:20:00,
2013-02-24 09:25:00,28.8,25.1,18.39,SE,127,2.0,9.0,86,0.00,,,0.01,Wunderground v.1.15,2013-02-24 14:25:00,
2013-02-24 09:35:00,28.8,25.1,18.39,East,93,1.0,9.0,86,0.00,,,0.01,Wunderground v.1.15,2013-02-24 14:35:00,
2013-02-24 09:40:00,29.0,25.3,18.39,East,90,1.0,9.0,86,0.00,,,0.01,Wunderground v.1.15,2013-02-24 14:40:00,
2013-02-24 09:45:00,29.2,25.5,18.39,North,355,0.0,9.0,86,0.00,,,0.01,Wunderground v.1.15,2013-02-24 14:45:00,
2013-02-24 09:50:00,29.5,25.8,18.39,NNE,22,1.0,9.0,86,0.00,,,0.01,Wunderground v.1.15,2013-02-24 14:50:00,
2013-02-24 09:55:00,29.7,25.7,18.39,North,356,1.0,9.0,85,0.00,,,0.01,Wunderground v.1.15,2013-02-24 14:55:00,
2013-02-24 10:00:00,29.9,25.7,18.39,North,360,2.0,7.0,84,0.00,,,0.01,Wunderground v.1.15,2013-02-24 15:00:00,
2013-02-24 10:10:00,30.0,25.5,18.39,North,353,1.0,1.0,83,0.00,,,0.01,Wunderground v.1.15,2013-02-24 15:10:00,
2013-02-24 10:15:00,30.0,25.5,18.39,NNW,348,1.0,7.0,83,0.00,,,0.01,Wunderground v.1.15,2013-02-24 15:15:00,
2013-02-24 10:25:00,29.8,25.0,18.39,North,350,2.0,7.0,82,0.00,,,0.01,Wunderground v.1.15,2013-02-24 15:25:00,
2013-02-24 10:30:00,29.6,24.8,18.39,NNW,344,3.0,7.0,82,0.00,,,0.01,Wunderground v.1.15,2013-02-24 15:30:00,
2013-02-24 10:35:00,29.4,24.6,18.39,NNW,334,3.0,7.0,82,0.00,,,0.01,Wunderground v.1.15,2013-02-24 15:35:00,
2013-02-24 10:40:00,29.5,25.0,18.39,NNW,343,2.0,2.0,83,0.00,,,0.01,Wunderground v.1.15,2013-02-24 15:40:00,
2013-02-24 10:50:00,29.5,25.3,18.39,NNW,342,1.0,1.0,84,0.00,,,0.01,Wunderground v.1.15,2013-02-24 15:50:00,
2013-02-24 10:55:00,29.4,25.4,18.39,NNW,340,1.0,7.0,85,0.00,,,0.01,Wunderground v.1.15,2013-02-24 15:55:00,
2013-02-24 11:00:00,29.5,25.8,18.39,NNW,340,1.0,9.0,86,0.00,,,0.01,Wunderground v.1.15,2013-02-24 16:00:00,
2013-02-24 11:10:00,29.5,26.1,18.39,East,98,1.0,9.0,87,0.00,,,0.01,Wunderground v.1.15,2013-02-24 16:10:00,
2013-02-24 11:15:00,29.4,26.0,18.39,East,82,3.0,9.0,87,0.00,,,0.01,Wunderground v.1.15,2013-02-24 16:15:00,
2013-02-24 11:20:00,29.5,26.4,18.39,East,90,2.0,9.0,88,0.00,,,0.01,Wunderground v.1.15,2013-02-24 16:20:00,
2013-02-24 11:25:00,29.5,26.4,18.39,East,93,2.0,9.0,88,0.00,,,0.01,Wunderground v.1.15,2013-02-24 16:25:00,
2013-02-24 11:30:00,29.6,26.5,18.39,ENE,78,2.0,2.0,88,0.00,,,0.01,Wunderground v.1.15,2013-02-24 16:30:00,
2013-02-24 11:35:00,29.5,26.4,18.39,East,90,1.0,9.0,88,0.00,,,0.01,Wunderground v.1.15,2013-02-24 16:35:00,
2013-02-24 11:40:00,29.5,26.4,18.39,ESE,108,2.0,2.0,88,0.00,,,0.01,Wunderground v.1.15,2013-02-24 16:40:00,
2013-02-24 11:50:00,29.1,26.0,18.39,ESE,108,3.0,3.0,88,0.00,,,0.01,Wunderground v.1.15,2013-02-24 16:50:00,
2013-02-24 11:55:00,29.1,26.0,18.39,ESE,103,1.0,9.0,88,0.00,,,0.01,Wunderground v.1.15,2013-02-24 16:55:00,
2013-02-24 12:05:00,29.3,26.5,18.39,ESE,108,0.0,7.0,89,0.00,,,0.01,Wunderground v.1.15,2013-02-24 17:05:00,
2013-02-24 12:10:00,29.3,26.5,18.39,ENE,57,1.0,1.0,89,0.00,,,0.01,Wunderground v.1.15,2013-02-24 17:10:00,
2013-02-24 12:15:00,29.4,26.6,18.39,SE,139,2.0,2.0,89,0.00,,,0.01,Wunderground v.1.15,2013-02-24 17:15:00,
2013-02-24 12:25:00,29.1,26.3,18.39,ESE,111,2.0,7.0,89,0.00,,,0.01,Wunderground v.1.15,2013-02-24 17:25:00,
2013-02-24 12:30:00,29.1,26.5,18.39,ESE,115,2.0,7.0,90,0.00,,,0.01,Wunderground v.1.15,2013-02-24 17:30:00,
2013-02-24 12:35:00,29.0,26.4,18.39,SE,124,2.0,7.0,90,0.00,,,0.01,Wunderground v.1.15,2013-02-24 17:35:00,
2013-02-24 12:40:00,28.9,26.6,18.39,SSW,211,2.0,2.0,91,0.00,,,0.01,Wunderground v.1.15,2013-02-24 17:40:00,
2013-02-24 12:45:00,29.2,26.9,18.39,East,100,2.0,7.0,91,0.00,,,0.01,Wunderground v.1.15,2013-02-24 17:45:00,
2013-02-24 12:55:00,29.1,27.1,18.39,SW,222,3.0,7.0,92,0.00,,,0.02,Wunderground v.1.15,2013-02-24 17:55:00,
2013-02-24 13:00:00,29.1,27.1,18.39,ESE,117,2.0,9.0,92,0.00,,,0.02,Wunderground v.1.15,2013-02-24 18:00:00,
2013-02-24 13:10:00,29.2,27.2,18.39,South,169,2.0,9.0,92,0.00,,,0.02,Wunderground v.1.15,2013-02-24 18:10:00,
2013-02-24 13:15:00,29.0,27.0,18.39,ESE,115,2.0,9.0,92,0.00,,,0.02,Wunderground v.1.15,2013-02-24 18:15:00,
2013-02-24 13:20:00,29.0,27.0,18.39,East,83,2.0,2.0,92,0.00,,,0.02,Wunderground v.1.15,2013-02-24 18:20:00,
2013-02-24 13:30:00,29.5,27.5,18.39,SE,124,1.0,9.0,92,0.00,,,0.02,Wunderground v.1.15,2013-02-24 18:30:00,
2013-02-24 13:35:00,29.4,27.4,18.39,North,9,3.0,9.0,92,0.00,,,0.02,Wunderground v.1.15,2013-02-24 18:35:00,
2013-02-24 13:40:00,29.3,27.3,18.39,South,186,3.0,9.0,92,0.00,,,0.02,Wunderground v.1.15,2013-02-24 18:40:00,
2013-02-24 13:45:00,29.1,27.1,18.39,NW,307,3.0,9.0,92,0.00,,,0.02,Wunderground v.1.15,2013-02-24 18:45:00,
2013-02-24 13:50:00,29.2,27.2,18.39,ESE,120,3.0,3.0,92,0.00,,,0.02,Wunderground v.1.15,2013-02-24 18:50:00,
2013-02-24 14:01:00,29.4,27.4,18.39,East,83,5.0,12.0,92,0.00,,,0.03,Wunderground v.1.15,2013-02-24 19:01:00,
2013-02-24 14:10:00,29.6,27.6,18.39,East,99,4.0,4.0,92,0.00,,,0.03,Wunderground v.1.15,2013-02-24 19:10:00,
2013-02-24 14:15:00,29.8,27.8,18.39,East,93,3.0,12.0,92,0.00,,,0.03,Wunderground v.1.15,2013-02-24 19:15:00,
2013-02-24 14:25:00,29.6,27.6,18.39,ESE,111,2.0,12.0,92,0.00,,,0.03,Wunderground v.1.15,2013-02-24 19:25:00,
2013-02-24 14:35:00,29.7,27.7,18.39,SSE,164,4.0,12.0,92,0.00,,,0.03,Wunderground v.1.15,2013-02-24 19:35:00,
2013-02-24 14:45:00,29.6,27.3,18.39,East,86,4.0,7.0,91,0.00,,,0.03,Wunderground v.1.15,2013-02-24 19:45:00,
2013-02-24 14:50:00,29.6,27.3,18.39,East,95,4.0,12.0,91,0.00,,,0.03,Wunderground v.1.15,2013-02-24 19:50:00,
2013-02-24 14:55:00,29.3,26.7,18.39,East,92,5.0,12.0,90,0.00,,,0.03,Wunderground v.1.15,2013-02-24 19:55:00,
2013-02-24 15:00:00,29.4,26.8,18.39,SE,131,4.0,13.0,90,0.00,,,0.03,Wunderground v.1.15,2013-02-24 20:00:00,
2013-02-24 15:10:00,29.6,27.0,18.39,East,80,5.0,5.0,90,0.00,,,0.03,Wunderground v.1.15,2013-02-24 20:10:00,
2013-02-24 15:15:00,29.5,26.9,18.39,East,88,4.0,13.0,90,0.00,,,0.03,Wunderground v.1.15,2013-02-24 20:15:00,
2013-02-24 15:20:00,29.6,27.0,18.39,SE,144,3.0,13.0,90,0.00,,,0.03,Wunderground v.1.15,2013-02-24 20:20:00,
2013-02-24 15:25:00,29.3,26.7,18.39,ESE,105,4.0,13.0,90,0.00,,,0.03,Wunderground v.1.15,2013-02-24 20:25:00,
2013-02-24 15:30:00,29.3,26.7,18.39,SE,135,4.0,4.0,90,0.00,,,0.03,Wunderground v.1.15,2013-02-24 20:30:00,
2013-02-24 15:35:00,29.4,26.8,18.39,East,97,3.0,6.0,90,0.00,,,0.03,Wunderground v.1.15,2013-02-24 20:35:00,
2013-02-24 15:40:00,29.3,26.7,18.39,East,98,3.0,3.0,90,0.00,,,0.03,Wunderground v.1.15,2013-02-24 20:40:00,
2013-02-24 15:45:00,29.6,27.0,18.39,ESE,109,2.0,13.0,90,0.00,,,0.03,Wunderground v.1.15,2013-02-24 20:45:00,
2013-02-24 15:50:00,29.9,27.3,18.39,ESE,116,2.0,13.0,90,0.00,,,0.03,Wunderground v.1.15,2013-02-24 20:50:00,
2013-02-24 15:55:00,30.2,27.3,18.39,ESE,120,4.0,13.0,89,0.00,,,0.03,Wunderground v.1.15,2013-02-24 20:55:00,
2013-02-24 16:01:00,30.4,27.3,18.39,ESE,105,4.0,4.0,88,0.00,,,0.04,Wunderground v.1.15,2013-02-24 21:01:00,
2013-02-24 16:10:00,30.2,26.5,18.39,ENE,67,4.0,12.0,86,0.00,,,0.04,Wunderground v.1.15,2013-02-24 21:10:00,
2013-02-24 16:15:00,30.0,26.0,18.39,East,83,5.0,12.0,85,0.00,,,0.04,Wunderground v.1.15,2013-02-24 21:15:00,
2013-02-24 16:20:00,29.6,25.6,18.39,ESE,104,6.0,6.0,85,0.00,,,0.04,Wunderground v.1.15,2013-02-24 21:20:00,
2013-02-24 16:25:00,29.6,25.6,18.39,East,99,4.0,12.0,85,0.00,,,0.04,Wunderground v.1.15,2013-02-24 21:25:00,
2013-02-24 16:35:00,29.3,25.6,18.39,SE,129,5.0,12.0,86,0.00,,,0.04,Wunderground v.1.15,2013-02-24 21:35:00,
2013-02-24 16:40:00,28.8,25.4,18.39,ESE,103,4.0,12.0,87,0.00,,,0.04,Wunderground v.1.15,2013-02-24 21:40:00,
2013-02-24 16:50:00,28.6,25.8,18.39,ESE,103,4.0,4.0,89,0.00,,,0.04,Wunderground v.1.15,2013-02-24 21:50:00,
2013-02-24 16:55:00,28.6,26.0,18.39,East,100,3.0,12.0,90,0.00,,,0.04,Wunderground v.1.15,2013-02-24 21:55:00,
2013-02-24 17:00:00,28.6,26.0,18.39,East,100,2.0,13.0,90,0.00,,,0.04,Wunderground v.1.15,2013-02-24 22:00:00,
2013-02-24 17:10:00,28.5,26.2,18.39,East,97,2.0,13.0,91,0.00,,,0.04,Wunderground v.1.15,2013-02-24 22:10:00,
2013-02-24 17:15:00,28.5,26.2,18.39,ESE,105,2.0,13.0,91,0.00,,,0.04,Wunderground v.1.15,2013-02-24 22:15:00,
2013-02-24 17:20:00,28.4,26.1,18.39,ESE,111,3.0,3.0,91,0.00,,,0.04,Wunderground v.1.15,2013-02-24 22:20:00,
2013-02-24 17:25:00,28.3,26.3,18.39,East,91,3.0,6.0,92,0.00,,,0.04,Wunderground v.1.15,2013-02-24 22:25:00,
2013-02-24 17:30:00,28.3,26.3,18.39,ENE,78,3.0,3.0,92,0.00,,,0.04,Wunderground v.1.15,2013-02-24 22:30:00,
2013-02-24 17:35:00,28.3,26.3,18.39,East,93,3.0,13.0,92,0.00,,,0.04,Wunderground v.1.15,2013-02-24 22:35:00,
2013-02-24 17:40:00,28.3,26.3,18.39,East,93,2.0,2.0,92,0.00,,,0.04,Wunderground v.1.15,2013-02-24 22:40:00,
2013-02-24 17:50:00,28.4,26.4,18.39,East,82,1.0,1.0,92,0.00,,,0.04,Wunderground v.1.15,2013-02-24 22:50:00,
2013-02-24 17:55:00,28.4,26.4,18.39,East,99,1.0,2.0,92,0.00,,,0.04,Wunderground v.1.15,2013-02-24 22:55:00,
2013-02-24 18:01:00,28.3,26.3,18.39,East,81,2.0,2.0,92,0.00,,,0.04,Wunderground v.1.15,2013-02-24 23:01:00,
2013-02-24 18:10:00,28.3,26.3,18.39,ESE,103,2.0,8.0,92,0.00,,,0.04,Wunderground v.1.15,2013-02-24 23:10:00,
2013-02-24 18:15:00,28.3,26.3,18.39,SE,128,3.0,8.0,92,0.00,,,0.04,Wunderground v.1.15,2013-02-24 23:15:00,
2013-02-24 18:20:00,28.4,26.4,18.39,East,94,4.0,4.0,92,0.00,,,0.04,Wunderground v.1.15,2013-02-24 23:20:00,
2013-02-24 18:25:00,28.5,26.2,18.39,East,101,3.0,5.0,91,0.00,,,0.04,Wunderground v.1.15,2013-02-24 23:25:00,
2013-02-24 18:30:00,28.6,26.3,18.39,ESE,117,4.0,4.0,91,0.00,,,0.04,Wunderground v.1.15,2013-02-24 23:30:00,
2013-02-24 18:35:00,28.7,26.1,18.39,East,94,5.0,5.0,90,0.00,,,0.04,Wunderground v.1.15,2013-02-24 23:35:00,
2013-02-24 18:40:00,28.7,26.1,18.39,ESE,117,5.0,8.0,90,0.00,,,0.04,Wunderground v.1.15,2013-02-24 23:40:00,
2013-02-24 18:45:00,28.7,26.1,18.39,SE,139,5.0,8.0,90,0.00,,,0.04,Wunderground v.1.15,2013-02-24 23:45:00,
2013-02-24 18:50:00,28.7,26.1,18.39,East,100,4.0,4.0,90,0.00,,,0.04,Wunderground v.1.15,2013-02-24 23:50:00,
2013-02-24 19:01:00,28.6,26.0,18.39,East,79,4.0,4.0,90,0.00,,,0.04,Wunderground v.1.15,2013-02-25 00:01:00,
2013-02-24 19:10:00,28.6,26.0,18.39,ESE,103,3.0,12.0,90,0.00,,,0.04,Wunderground v.1.15,2013-02-25 00:10:00,
2013-02-24 19:15:00,28.6,26.0,18.39,East,90,3.0,12.0,90,0.00,,,0.04,Wunderground v.1.15,2013-02-25 00:15:00,
2013-02-24 19:20:00,28.6,26.0,18.39,East,80,3.0,3.0,90,0.00,,,0.04,Wunderground v.1.15,2013-02-25 00:20:00,
2013-02-24 19:30:00,28.5,25.9,18.39,East,86,3.0,12.0,90,0.00,,,0.04,Wunderground v.1.15,2013-02-25 00:30:00,
2013-02-24 19:35:00,28.4,25.8,18.39,ESE,107,4.0,12.0,90,0.00,,,0.04,Wunderground v.1.15,2013-02-25 00:35:00,
2013-02-24 19:40:00,28.4,25.8,18.39,ESE,108,5.0,5.0,90,0.00,,,0.04,Wunderground v.1.15,2013-02-25 00:40:00,
2013-02-24 19:45:00,28.5,25.9,18.39,East,86,4.0,12.0,90,0.00,,,0.04,Wunderground v.1.15,2013-02-25 00:45:00,
2013-02-24 19:50:00,28.4,25.8,18.39,ESE,104,3.0,12.0,90,0.00,,,0.04,Wunderground v.1.15,2013-02-25 00:50:00,
2013-02-24 19:55:00,28.5,25.9,18.39,East,96,3.0,12.0,90,0.00,,,0.00,Wunderground v.1.15,2013-02-25 00:55:00,
2013-02-24 20:01:00,28.5,25.9,18.39,East,99,4.0,11.0,90,0.00,,,0.00,Wunderground v.1.15,2013-02-25 01:01:00,
2013-02-24 20:10:00,28.5,26.2,18.39,ESE,103,3.0,3.0,91,0.00,,,0.00,Wunderground v.1.15,2013-02-25 01:10:00,
2013-02-24 20:15:00,28.5,26.2,18.39,ESE,107,2.0,11.0,91,0.00,,,0.00,Wunderground v.1.15,2013-02-25 01:15:00,
2013-02-24 20:25:00,28.4,26.1,18.39,ESE,102,1.0,11.0,91,0.00,,,0.00,Wunderground v.1.15,2013-02-25 01:25:00,
2013-02-24 20:35:00,28.4,26.1,18.39,ESE,123,2.0,11.0,91,0.00,,,0.00,Wunderground v.1.15,2013-02-25 01:35:00,
2013-02-24 20:40:00,28.4,26.1,18.39,East,87,2.0,2.0,91,0.00,,,0.00,Wunderground v.1.15,2013-02-25 01:40:00,
2013-02-24 20:50:00,28.6,26.3,18.39,ESE,103,2.0,11.0,91,0.00,,,0.00,Wunderground v.1.15,2013-02-25 01:50:00,
2013-02-24 20:55:00,28.5,26.2,18.39,ESE,109,2.0,11.0,91,0.00,,,0.00,Wunderground v.1.15,2013-02-25 01:55:00,
2013-02-24 21:00:00,28.6,26.3,18.39,East,88,2.0,2.0,91,0.00,,,0.00,Wunderground v.1.15,2013-02-25 02:00:00,
2013-02-24 21:10:00,28.7,26.4,18.39,ESE,110,2.0,7.0,91,0.00,,,0.00,Wunderground v.1.15,2013-02-25 02:10:00,
2013-02-24 21:15:00,28.8,26.5,18.39,ENE,75,2.0,7.0,91,0.00,,,0.00,Wunderground v.1.15,2013-02-25 02:15:00,
2013-02-24 21:20:00,28.8,26.5,18.39,ESE,107,2.0,2.0,91,0.00,,,0.00,Wunderground v.1.15,2013-02-25 02:20:00,
2013-02-24 21:25:00,28.8,26.5,18.39,East,81,2.0,7.0,91,0.00,,,0.00,Wunderground v.1.15,2013-02-25 02:25:00,
2013-02-24 21:30:00,28.8,26.5,18.39,East,96,2.0,7.0,91,0.00,,,0.00,Wunderground v.1.15,2013-02-25 02:30:00,
2013-02-24 21:40:00,28.9,26.6,18.39,ESE,106,2.0,8.0,91,0.00,,,0.00,Wunderground v.1.15,2013-02-25 02:40:00,
2013-02-24 21:45:00,28.9,26.6,18.39,East,95,2.0,8.0,91,0.00,,,0.00,Wunderground v.1.15,2013-02-25 02:45:00,
2013-02-24 21:50:00,29.0,26.7,18.39,ESE,102,2.0,2.0,91,0.00,,,0.00,Wunderground v.1.15,2013-02-25 02:50:00,
2013-02-24 21:55:00,28.9,26.6,18.39,ESE,105,1.0,3.0,91,0.00,,,0.00,Wunderground v.1.15,2013-02-25 02:55:00,
2013-02-24 22:00:00,29.0,26.7,18.39,East,97,2.0,8.0,91,0.00,,,0.00,Wunderground v.1.15,2013-02-25 03:00:00,
2013-02-24 22:10:00,28.9,26.6,18.39,East,90,2.0,8.0,91,0.00,,,0.00,Wunderground v.1.15,2013-02-25 03:10:00,
2013-02-24 22:15:00,28.9,26.6,18.39,ENE,74,2.0,8.0,91,0.00,,,0.00,Wunderground v.1.15,2013-02-25 03:15:00,
2013-02-24 22:20:00,29.0,26.7,18.39,East,98,1.0,8.0,91,0.00,,,0.00,Wunderground v.1.15,2013-02-25 03:20:00,
2013-02-24 22:25:00,29.0,26.7,18.39,East,98,0.0,8.0,91,0.00,,,0.00,Wunderground v.1.15,2013-02-25 03:25:00,
2013-02-24 22:30:00,29.0,26.7,18.39,East,101,1.0,1.0,91,0.00,,,0.00,Wunderground v.1.15,2013-02-25 03:30:00,
2013-02-24 22:35:00,29.0,27.0,18.39,East,99,1.0,8.0,92,0.00,,,0.00,Wunderground v.1.15,2013-02-25 03:35:00,
2013-02-24 22:40:00,29.0,27.0,18.39,East,92,1.0,1.0,92,0.00,,,0.00,Wunderground v.1.15,2013-02-25 03:40:00,
2013-02-24 22:45:00,29.0,27.0,18.39,SE,126,1.0,8.0,92,0.00,,,0.00,Wunderground v.1.15,2013-02-25 03:45:00,
2013-02-24 22:50:00,29.0,27.0,18.39,East,93,2.0,2.0,92,0.00,,,0.00,Wunderground v.1.15,2013-02-25 03:50:00,
2013-02-24 22:55:00,29.0,27.0,18.39,ESE,107,3.0,5.0,92,0.00,,,0.00,Wunderground v.1.15,2013-02-25 03:55:00,
2013-02-24 23:01:00,29.1,27.1,18.39,East,90,3.0,10.0,92,0.00,,,0.00,Wunderground v.1.15,2013-02-25 04:01:00,
2013-02-24 23:10:00,29.0,27.0,18.39,ESE,104,3.0,10.0,92,0.00,,,0.00,Wunderground v.1.15,2013-02-25 04:10:00,
2013-02-24 23:15:00,29.0,27.0,18.39,ESE,119,3.0,10.0,92,0.00,,,0.00,Wunderground v.1.15,2013-02-25 04:15:00,
2013-02-24 23:20:00,29.1,27.1,18.39,SE,126,3.0,3.0,92,0.00,,,0.00,Wunderground v.1.15,2013-02-25 04:20:00,
2013-02-24 23:25:00,29.0,27.0,18.39,ESE,104,2.0,10.0,92,0.00,,,0.00,Wunderground v.1.15,2013-02-25 04:25:00,
2013-02-24 23:30:00,29.0,27.0,18.39,SE,124,2.0,10.0,92,0.00,,,0.00,Wunderground v.1.15,2013-02-25 04:30:00,
2013-02-24 23:35:00,29.0,27.0,18.39,ESE,102,2.0,10.0,92,0.00,,,0.00,Wunderground v.1.15,2013-02-25 04:35:00,
2013-02-24 23:40:00,29.0,27.0,18.39,ENE,77,3.0,3.0,92,0.00,,,0.00,Wunderground v.1.15,2013-02-25 04:40:00,
2013-02-24 23:50:00,29.0,27.0,18.39,East,97,3.0,3.0,92,0.00,,,0.00,Wunderground v.1.15,2013-02-25 04:50:00,
2013-02-24 23:55:00,29.0,27.0,18.39,East,97,2.0,10.0,92,0.00,,,0.00,Wunderground v.1.15,2013-02-25 04:55:00,